Armorel, AR

12:14 AM CST on February 10, 2016 (GMT -0600)
Blytheville Municipal

Weather History for KHKA - March, 2013

Change the Weather History Date:

Friday, March 29, 2013

  Actual Average Record
Temperature  
Mean Temperature 47 °F -  
Max Temperature 51 °F 67 °F 84 °F (2007)
Min Temperature 41 °F 48 °F 28 °F (1937)
Degree Days  
Heating Degree Days 18    
Moisture  
Dew Point 43 °F    
Average Humidity 82    
Maximum Humidity 100    
Minimum Humidity 58    
Precipitation  
Precipitation 0.08 in - - ()
Sea Level Pressure  
Sea Level Pressure 30.21 in    
Wind  
Wind Speed 5 mph (ESE)    
Max Wind Speed 15 mph    
Max Gust Speed 23 mph    
Visibility 8 miles    
Events Fog , Rain    
Averages and records for this station are not official NWS values.
T = Trace of Precipitation, MM = Missing Value Source: NWS Daily Summary

Daily Weather History Graph

Daily Weather History Graph

Search for Another Location

Airport or City:

Trip Planner

Search our weather history database for the weather conditions in past years. The results will help you decide how hot, cold, wet, or windy it might be!

Date:

Astronomy

Mar. 29, 2013 Rise Set
Actual Time 6:49 AM CDT 7:18 PM CDT
Civil Twilight 6:23 AM CDT 7:44 PM CDT
Nautical Twilight 5:53 AM CDT 8:14 PM CDT
Astronomical Twilight 5:22 AM CDT 8:45 PM CDT
Moon 10:12 PM CDT (3/29) 8:04 AM CDT (3/29)
Length of Visible Light 13h 20m
Length of Day
12h 29m
Waning Gibbous, 93% of the Moon is Illuminated
Mar 29
Waning Gibbous
Apr 2
Last Quarter
Apr 10
New
Apr 18
First Quarter
Apr 25
Full

Hourly Weather History & Observations

Time (CDT) Temp. Windchill Dew Point Humidity Pressure Visibility Wind Dir Wind Speed Gust Speed Precip Events Conditions
12:53 AM 48.9 °F - 35.1 °F 59% 30.24 in 10.0 mi SE 4.6 mph - N/A   Partly Cloudy
1:53 AM 48.0 °F - 34.0 °F 58% 30.22 in 10.0 mi SSE 8.1 mph - N/A   Clear
2:53 AM 48.0 °F - 35.1 °F 61% 30.20 in 10.0 mi SSE 6.9 mph - N/A   Clear
3:53 AM 50.0 °F - 36.0 °F 59% 30.19 in 10.0 mi SSE 6.9 mph - N/A   Clear
4:53 AM 50.0 °F - 36.0 °F 59% 30.18 in 10.0 mi South 5.8 mph - N/A   Clear
5:53 AM 48.0 °F - 37.0 °F 66% 30.19 in 10.0 mi SSE 3.5 mph - N/A   Overcast
6:53 AM 48.0 °F - 37.9 °F 68% 30.20 in 10.0 mi Calm Calm - N/A   Overcast
7:53 AM 48.0 °F - 39.9 °F 74% 30.24 in 10.0 mi NNE 15.0 mph 23.0 mph N/A   Overcast
8:04 AM 48.2 °F - 39.2 °F 71% 30.24 in 10.0 mi NE 6.9 mph - N/A   Overcast
8:53 AM 48.9 °F - 41.0 °F 74% 30.26 in 10.0 mi NE 9.2 mph - 0.00 in Rain Light Rain
9:53 AM 50.0 °F - 41.0 °F 71% 30.27 in 10.0 mi NE 6.9 mph - 0.00 in   Overcast
10:53 AM 50.0 °F - 43.0 °F 77% 30.26 in 8.0 mi ESE 10.4 mph - 0.01 in Rain Light Rain
11:53 AM 50.0 °F - 44.1 °F 80% 30.25 in 10.0 mi SSE 8.1 mph - 0.03 in Rain Light Rain
12:53 PM 48.9 °F - 45.0 °F 86% 30.21 in 6.0 mi SSE 13.8 mph 20.7 mph 0.03 in Rain Rain
1:28 PM 48.2 °F - 44.6 °F 87% 30.22 in 5.0 mi Calm Calm - 0.01 in Rain Light Rain
1:53 PM 48.9 °F - 46.0 °F 90% 30.22 in 10.0 mi Calm Calm - 0.01 in Rain Light Rain
2:53 PM 48.9 °F - 46.0 °F 90% 30.20 in 10.0 mi East 4.6 mph - 0.00 in   Overcast
3:53 PM 50.0 °F - 46.9 °F 89% 30.19 in 10.0 mi ENE 3.5 mph - N/A   Overcast
4:28 PM 50.0 °F - 46.4 °F 87% 30.19 in 10.0 mi ENE 3.5 mph - N/A   Overcast
4:53 PM 50.0 °F - 46.9 °F 89% 30.20 in 10.0 mi NE 3.5 mph - N/A   Overcast
5:53 PM 51.1 °F - 46.9 °F 86% 30.20 in 10.0 mi East 3.5 mph - N/A   Overcast
6:16 PM 51.8 °F - 48.2 °F 88% 30.20 in 10.0 mi East 3.5 mph - N/A   Overcast
6:31 PM 51.8 °F - 48.2 °F 88% 30.20 in 10.0 mi Calm Calm - N/A   Overcast
6:53 PM 50.0 °F - 46.9 °F 89% 30.20 in 10.0 mi East 4.6 mph - N/A   Partly Cloudy
7:53 PM 46.9 °F - 45.0 °F 93% 30.19 in 5.0 mi East 5.8 mph - N/A   Clear
8:53 PM 46.0 °F 44.8 °F 45.0 °F 96% 30.22 in 2.5 mi SSE 3.5 mph - N/A   Clear
9:17 PM 46.4 °F 44.3 °F 44.6 °F 93% 30.22 in 1.0 mi SE 4.6 mph - N/A   Mist
9:23 PM 44.6 °F 41.4 °F 44.6 °F 100% 30.22 in 0.2 mi ESE 5.8 mph - N/A Fog Fog
9:53 PM 44.1 °F - 44.1 °F 100% 30.22 in 0.2 mi Calm Calm - N/A Fog Fog
10:40 PM 44.6 °F - 42.8 °F 93% 30.21 in 0.5 mi Calm Calm - N/A Fog Fog
10:53 PM 43.0 °F - 43.0 °F 100% 30.22 in 0.2 mi Calm Calm - N/A Fog Fog
11:53 PM 41.0 °F - 39.9 °F 96% 30.21 in 0.2 mi Calm Calm - N/A Fog Fog